Location: Capannuccia
(43.7000°N, 11.3000°E)
Time: 08:46:33
(UTC+00:00)

STARLINK-2701 - Pass Details

Date: 30 July 2021
Orbit: 546 x 548 km, 53.1° (Epoch: 23 September)

Event Time Altitude Azimuth Distance (km) Brightness Sun altitude
Rises 20:31:51 0° 296° (WNW) 2,725 8.5 -16.9°
Reaches altitude 10° 20:34:24 10° 282° (WNW) 1,827 7.1 -17.2°
Maximum altitude 20:37:45 24° 229° (SW) 1,168 5.2 -17.6°
Enters shadow 20:39:09 20° 199° (SSW) 1,307 5.2 -17.8°
